User: anonymous   Login
Location: Unspecified
(0.0000°N, 0.0000°E)
Time: 03:29:21
(UTC+00:00)
Language:

SAR-Lupe-4 - Orbit

View from above orbital plane
View from above orbital plane
View from above satellite
View from above satellite

Ground track
Ground track

The orbit data is extracted from the following two-line orbital elements,

1 32750U 08014A   17176.10218306 0.00000200  00000-0  74768-5 0    05
2 32750  98.1313 226.6090 0002000 116.9061 243.0937 15.27374304    09
Epoch (UTC): 25 June 2017 02:27:08
Eccentricity: 0.0002000
inclination: 98.1313°
perigee height: 482 km
apogee height: 485 km
right ascension of ascending node: 226.6090°
argument of perigee: 116.9061°
revolutions per day: 15.27374304
mean anomaly at epoch: 243.0937°
orbit number at epoch: 0

The dashed part of the orbit path shows where the satellite is in the earth's shadow,  

DLR